Tracking 20093 objects as of 16-Dec-2019
HD Live streaming from Space Station
objects crossing your sky now

BREEZE-KM R/B

Track BREEZE-KM R/B now!
10-day predictions


NORAD ID: 39764
Int'l Code: 2014-028D
Perigee: 1,157.9 km
Apogee: 1,511.1 km
Inclination: 82.4 °
Period: 112.2 minutes
Semi major axis: 7705 km
RCS: Unknown
Launch date: May 23, 2014
Source: Commonwealth of Independent States (former USSR) (CIS)
Launch site: PLESETSK MISSILE AND SPACE COMPLEX (PKMTR)

Note: This is a ROCKET BODY
aabbcc
Your satellite tracking list
Your tracking list is empty




NASA's NSSDC Master Catalog

Two Line Element Set (TLE):
1 39764U 14028D   19349.87269355 +.00000014 +00000-0 +66897-5 0  9991
2 39764 082.4420 055.4724 0229167 176.6515 183.6189 12.83510881260737
Source of the keplerian elements: AFSPC